Flag for Afghanistan Weather past 2 weeks in Mazari Sharif, Afghanistan

Now
36 °F

Fog.


Feels Like: 31 °F
Forecast: 40 / 56 °F
Wind: 6 mph from North

Location: Termez Airport

Current Time: Dec 29, 2014 at 5:49:29 AM

Latest Report: Dec 29, 2014 at 5:00 AM


Visibility: 3 mi

Pressure: 30.07 "Hg

Humidity: 87%

Dew point: 32 °F

Location of Mazari SharifLocation

Historic Weather in Mazari Sharif — Graph

°F

Mazari Sharif temperature yesterday

Maximum temperature yesterday: 61 °F (at 3:00 PM)
Minimum temperature yesterday: 32 °F (at 3:00 AM)
Average temperature yesterday: 43 °F

Past Weeks' High & Low Weather Summary

 TemperatureHumidityPressure
High113 °F (Dec 27, 9:30 PM)100% (Dec 14, 6:00 AM)30.51 "Hg (Dec 14, 6:00 AM)
Low25 °F (Dec 14, 6:00 AM)6% (Dec 27, 9:30 PM)29.92 "Hg (Dec 24, 4:30 AM)
Average43 °F73%30.22 "Hg
* Reported Dec 14 4:30 AM — Dec 29 4:30 AM, Mazari Sharif, Weather by CustomWeather, © 2014

Note: Actual official high and low records may vary slightly from our data, if they occured in-between our weather recording intervals... More about our weather records

Advertising

Mazari Sharif weather history for previous 24 hours

 ConditionsComfort  
Time TempWeatherWind HumidityBarometerVisibility
4:30 AM
Dec 29
36 °FClear.2 mph93%30.07 "Hg4 mi
3:30 AM36 °FClear.3 mph87%30.07 "Hg4 mi
2:30 AM37 °FClear.7 mph87%30.09 "Hg4 mi
1:30 AM36 °FClear.5 mph93%30.07 "Hg4 mi
12:30 AM36 °FClear.3 mph93%30.09 "Hg4 mi
11:30 PM
Dec 28
37 °FClear.7 mph75%30.09 "Hg4 mi
10:30 PM37 °FClear.5 mph75%30.09 "Hg4 mi
10:00 PM39 °FClear.5 mph65%30.09 "Hg5 mi
9:30 PM39 °FClear.5 mph65%30.09 "Hg6 mi
9:00 PM41 °FClear.3 mph66%30.09 "Hg4 mi
8:30 PM39 °FClear.1 mph70%30.09 "Hg2 mi
8:00 PM43 °FClear.No wind61%30.09 "Hg3 mi
7:30 PM43 °FClear.No wind61%30.09 "Hg2 mi
7:00 PM46 °FClear.6 mph53%30.07 "Hg5 mi
6:30 PM46 °FClear.3 mph53%30.09 "Hg4 mi
6:00 PM48 °FClear.3 mph50%30.07 "Hg2 mi
5:30 PM50 °FClear.3 mph47%30.07 "Hg10 mi
5:00 PM55 °FClear.1 mph38%30.07 "Hg10 mi
4:30 PM57 °FSunny.1 mph36%30.07 "Hg10 mi
4:00 PM59 °FSunny.2 mph34%30.07 "Hg10 mi
3:30 PM59 °FSunny.5 mph31%30.07 "Hg10 mi
3:00 PM61 °FPassing clouds.3 mph27%30.07 "HgN/A
2:30 PM59 °FPassing clouds.5 mph34%30.07 "HgN/A
2:00 PM59 °FPassing clouds.2 mph34%30.09 "HgN/A
1:30 PM57 °FPassing clouds.3 mph39%30.09 "HgN/A
1:00 PM57 °FClear.1 mph36%30.09 "Hg4 mi
12:30 PM54 °FClear.2 mph44%30.12 "Hg6 mi
12:00 PM50 °FClear.No wind54%30.12 "Hg6 mi
11:30 AM50 °FClear.No wind47%30.12 "Hg3 mi
11:00 AM50 °FSunny.No wind54%30.15 "Hg10 mi
10:30 AM46 °FPassing clouds.1 mph62%30.15 "HgN/A
10:00 AM43 °FSunny.1 mph66%30.15 "Hg10 mi
9:30 AM39 °FSunny.1 mph75%30.15 "Hg10 mi
9:00 AM39 °FSunny.3 mph75%30.15 "Hg10 mi
8:30 AM36 °FClear.5 mph87%30.12 "Hg5 mi
8:00 AM32 °FClear.7 mph93%30.12 "Hg5 mi
7:30 AM32 °FClear.6 mph93%30.12 "Hg4 mi
7:00 AM32 °FIce fog.7 mph93%30.12 "Hg3 mi
6:30 AM32 °FClear.6 mph93%30.12 "Hg4 mi
6:00 AM32 °FIce fog.3 mph100%30.09 "Hg2 mi
5:30 AM32 °FIce fog.2 mph93%30.12 "Hg2 mi
5:00 AM32 °FIce fog.6 mph93%30.09 "Hg2 mi
Weather by CustomWeather, © 2014

See weather overviewHow to use our weather pages